Location: Taupo
(38.6830°S, 176.0830°E)
Time: 02:11:50
(UTC+13:00)

HJ-1C - Pass Details

Date: 24 January 2019
Orbit: 438 x 450 km, 97.2° (Epoch: 23 February)

Event Time Altitude Azimuth Distance (km) Brightness Sun altitude
Rises 20:59:45 0° 165° (SSE) 2,495 7.4 -4.7°
Reaches altitude 10° 21:01:50 10° 161° (SSE) 1,610 6.4 -5.1°
Maximum altitude 21:05:15 59° 80° (E) 533 3.5 -5.6°
Drops below altitude 10° 21:08:36 10° 359° (N) 1,577 5.9 -6.2°
Sets 21:10:37 0° 355° (N) 2,436 6.9 -6.5°
